SCP
0 0 0 0 0 0 0 0 0 0 0 0 0 0 0 0 0 0 0 1 1 1 1 1 1 1 1 2 3 2 2 2 1 1 1 1 0 0 0 0 0 0 0 0
0 0 0 0 0 0 0 0 0 0 0 0 0 0 0 0 0 0 0 1 1 1 1 1 1 1 1 2 2 3 2 2 2 1 1 1 1 1 1 1 0 0 0 0
0 0 0 0 0 0 0 0 0 0 0 0 0 0 0 0 1 0 0 1 1 1 1 1 1 1 1 1 2 3 3 2 2 2 1 1 1 1 1 1 1 1 1 0
0 0 0 0 0 0 0 0 0 0 0 0 0 0 0 0 1 1 1 1 1 1 1 1 1 1 1 1 2 3 3 2 2 2 2 1 1 1 2 2 1 1 1 1
0 0 0 0 0 0 0 0 0 0 0 0 0 0 0 0 1 1 1 1 1 1 1 1 1 1 1 1 2 3 3 3 2 2 2 2 2 2 2 2 2 2 1 1
0 0 0 0 0 0 0 0 0 0 0 0 0 0 0 0 0 1 1 1 1 1 1 1 1 1 1 2 2 2 2 3 3 3 2 2 2 2 2 2 2 2 1 1
0 0 0 0 0 0 0 0 0 0 0 0 0 0 0 0 0 0 0 1 1 1 1 1 1 1 1 2 2 2 2 3 3 3 3 2 2 2 2 2 2 2 2 2
0 0 0 0 0 0 0 0 0 0 0 0 0 0 0 0 0 0 0 0 0 0 1 1 2 2 2 2 3 3 3 3 4 4 4 3 3 2 2 2 2 2 2 2
0 0 0 0 0 0 0 0 0 0 0 0 0 1 0 0 0 0 0 0 0 0 0 1 1 2 3 3 4 4 4 4 4 4 4 4 4 3 2 2 2 2 2 2
0 0 0 0 0 0 0 0 0 0 0 0 0 0 0 0 0 0 0 0 0 0 0 0 1 1 2 3 4 5 5 5 5 5 5 5 4 4 3 2 2 2 2 2
0 0 0 0 0 0 0 0 0 0 0 0 0 0 0 0 0 0 0 0 0 0 0 0 0 0 0 2 3 4 5 5 5 5 5 5 5 4 3 2 2 2 1 1
0 0 0 0 0 0 0 0 0 0 0 0 0 0 0 0 0 0 0 0 0 0 0 0 0 0 0 1 1 3 3 4 4 5 5 6 5 3 2 1 1 0 0 1
0 0 0 0 0 0 0 0 0 0 0 0 0 0 0 0 0 0 0 0 0 0 0 0 0 0 0 0 0 1 1 2 2 3 3 4 4 2 1 0 0 0 0 0
0 0 0 0 0 0 0 0 0 0 0 0 0 0 0 0 0 0 0 0 0 0 0 0 0 0 0 0 0 0 0 0 1 1 2 2 2 1 0 0 0 0 0 0
0 0 0 0 0 0 0 0 0 0 0 0 0 0 0 0 0 0 0 0 0 0 0 0 0 0 0 0 0 0 0 0 0 0 1 1 1 0 0 0 0 0 0 0
0 0 0 0 0 0 0 0 0 0 0 0 0 0 0 0 0 0 0 0 0 0 0 0 0 0 0 0 0 0 0 0 0 0 0 0 1 1 0 0 0 0 0 0
0 0 0 0 0 0 0 0 0 0 0 0 0 0 0 0 0 0 0 0 0 0 0 0 0 0 0 0 0 0 0 0 0 0 0 0 0 1 1 1 0 0 0 0
0 0 0 0 0 0 0 0 0 0 0 0 0 0 0 0 0 0 0 0 0 0 0 0 0 0 0 0 0 0 0 0 0 0 0 0 0 0 0 0 0 0 0 0
0 0 0 0 0 0 0 0 0 0 0 0 0 0 0 0 0 0 0 0 0 0 0 0 0 0 0 0 0 0 0 0 0 0 0 0 0 0 0 0 0 0 0 0
0 0 0 0 0 0 0 0 0 0 0 0 0 0 0 0 0 0 0 0 0 0 0 0 0 0 0 0 0 0 0 0 0 0 0 0 0 0 0 0 0 0 0 0
0 0 0 0 0 0 0 0 0 0 0 0 0 0 0 0 0 0 0 0 0 0 0 0 0 0 0 0 0 0 0 0 0 0 0 0 0 0 0 0 0 0 0 0
0 0 0 0 0 0 0 0 0 0 0 0 0 0 0 0 0 0 0 0 0 0 0 0 0 0 0 0 0 0 0 0 0 0 0 0 0 0 0 0 0 0 0 0
0 0 0 0 0 0 0 0 0 0 0 0 0 0 0 0 0 0 0 0 0 0 0 0 0 0 0 0 0 0 0 0 0 0 0 0 0 0 0 0 0 0 0 0
0 0 0 0 0 0 0 0 0 0 0 0 0 0 0 0 0 0 0 0 0 0 0 0 0 0 0 0 0 0 0 0 0 0 0 0 0 0 0 0 0 0 0 0
0 0 0 0 0 0 0 0 0 0 0 0 0 0 0 0 0 0 0 0 0 0 0 0 0 0 0 0 0 0 0 0 0 0 0 0 0 0 0 0 0 0 0 0
0 0 0 0 0 0 0 0 0 0 0 0 0 0 0 0 0 0 0 0 0 0 0 0 0 0 0 0 0 0 0 0 0 0 0 0 0 0 0 0 0 0 0 0
0 0 0 0 0 0 0 0 0 0 0 0 0 0 0 0 0 0 0 0 0 0 0 0 0 0 0 0 0 0 0 0 0 0 0 0 0 0 0 0 0 0 0 0
Wind_Speed
6 4 5 7 8 8 11 10 10 9 9 8 6 5 4 3 2 3 4 4 4 4 5 5 5 5 5 5 5 5 5 5 4 4 4 4 3 3 3 3 3 3 3 3
7 6 7 8 9 9 10 10 11 10 9 5 5 4 3 2 2 3 4 4 4 4 4 5 6 5 5 5 5 5 5 5 4 4 4 4 4 3 3 3 4 3 4 3
7 4 6 8 6 7 6 5 7 8 5 3 4 4 3 2 2 3 3 3 3 4 4 4 5 5 5 5 5 5 5 4 4 4 4 4 4 3 4 4 3 4 4 4
6 6 9 0 2 2 5 4 4 5 4 4 4 4 3 2 3 3 3 3 3 3 3 3 3 4 4 4 4 5 4 4 4 4 4 4 4 4 4 4 4 4 4 5
6 8 7 2 1 2 4 3 2 4 4 3 3 4 2 1 3 3 2 2 2 2 2 2 3 4 4 4 4 4 4 4 4 4 4 4 4 4 4 4 4 4 4 4
7 8 7 1 1 1 5 4 2 3 3 2 2 4 1 2 3 2 2 1 1 1 1 2 2 3 4 4 4 4 4 4 4 4 4 4 4 4 3 4 4 4 4 4
9 9 5 2 1 3 6 2 3 2 3 3 3 4 4 2 2 2 2 2 1 1 1 1 2 3 4 4 4 4 3 3 4 4 4 4 4 3 4 3 4 4 4 4
6 7 4 3 2 2 3 4 3 3 2 3 3 2 2 2 2 2 2 2 1 1 1 1 2 3 4 4 3 3 3 3 4 4 4 3 4 4 4 4 4 4 4 4
4 2 4 2 0 3 4 3 3 3 3 3 2 2 2 2 2 2 2 1 1 1 1 1 1 2 3 3 2 3 4 4 4 4 3 4 4 4 4 4 4 4 4 4
4 2 1 1 2 3 3 3 3 3 3 2 2 2 2 2 2 2 2 2 2 2 2 2 2 2 3 2 2 3 3 4 3 3 3 3 3 3 4 4 4 4 4 4
5 2 2 2 2 3 3 2 3 3 2 2 2 2 2 2 2 2 2 2 2 2 2 3 2 3 2 3 3 4 4 4 4 3 3 3 4 3 4 4 3 4 4 4
4 2 3 3 4 3 2 2 2 3 3 3 2 3 3 3 3 3 3 3 3 3 3 3 3 2 2 3 4 4 4 4 3 3 3 3 3 3 2 4 3 4 6 6
5 3 4 4 3 3 2 3 3 2 3 3 3 3 3 3 3 3 3 3 3 4 3 3 3 3 3 3 4 4 4 4 3 4 4 4 4 4 4 4 5 5 6 7
4 3 3 3 3 3 3 3 3 3 3 3 3 4 3 3 3 3 4 4 4 4 4 3 3 4 4 3 4 5 5 4 4 4 4 4 4 5 5 5 4 4 5 6
4 4 4 3 2 3 3 3 3 4 4 4 4 4 4 4 4 4 4 4 4 4 4 4 4 4 4 3 4 4 4 4 4 4 4 4 4 5 5 5 5 5 4 4
3 3 3 2 2 2 3 3 3 4 4 4 4 4 5 4 4 4 4 4 4 5 4 4 4 4 4 4 4 4 4 4 4 4 4 4 5 5 5 5 5 5 5 4
4 4 3 3 3 3 3 4 4 4 4 4 5 5 4 4 4 4 4 5 5 5 5 5 5 4 4 4 4 3 4 4 5 5 5 5 5 5 5 5 5 5 5 4
4 4 3 3 3 3 3 3 3 3 4 4 4 4 4 4 5 5 5 5 5 5 5 5 4 4 4 4 3 3 3 4 4 4 4 5 5 5 5 5 6 6 5 4
2 2 1 1 2 2 3 3 3 4 4 4 4 4 5 5 6 6 6 5 5 5 5 5 5 4 4 4 4 3 4 4 4 4 4 4 5 5 5 5 5 5 5 5
2 1 1 1 1 2 3 3 3 3 3 4 4 5 5 5 5 5 5 5 4 4 5 5 5 4 4 3 4 3 3 3 3 3 3 4 4 4 5 5 5 5 5 5
1 1 1 1 2 3 3 3 3 3 3 4 4 5 5 5 4 4 5 5 4 4 5 5 4 4 3 3 4 3 3 3 3 3 4 4 4 4 5 5 5 5 5 5
1 1 2 2 3 3 3 3 3 4 4 3 4 4 4 4 4 5 5 4 4 4 4 3 3 3 4 4 3 3 3 3 3 3 3 4 4 5 5 5 5 5 5 5
2 2 3 3 3 3 3 3 3 3 4 4 4 4 4 4 4 4 4 4 4 5 4 3 4 4 5 3 2 2 3 3 3 3 4 4 4 4 5 5 5 5 5 5
2 2 2 2 3 4 4 4 4 3 3 4 4 4 4 4 3 3 4 4 5 5 4 3 4 4 4 3 3 3 3 3 3 4 4 4 4 4 5 5 5 5 5 6
2 2 2 3 3 3 4 4 4 4 3 3 3 3 3 3 3 4 4 3 4 4 3 3 4 4 4 3 3 3 3 3 4 4 4 4 4 5 5 5 5 5 5 5
3 3 3 3 3 3 3 3 3 3 3 3 3 3 2 2 3 3 3 3 4 4 3 3 3 3 3 3 3 4 4 4 4 4 4 4 5 5 5 5 6 6 6 6
3 3 3 3 3 3 3 3 3 4 3 3 3 3 3 3 3 3 3 3 3 3 3 3 3 3 3 3 4 4 4 4 4 4 4 4 4 4 5 6 5 5 5 5
Wind_Direction
262 268 252 252 248 235 240 253 266 277 281 296 306 295 276 255 227 205 194 193 192 195 194 194 198 199 203 204 201 199 200 206 209 213 211 215 216 221 223 223 236 241 240 237
239 241 249 254 252 243 245 252 258 270 276 313 317 301 269 234 211 210 205 205 203 203 201 202 201 203 203 203 200 199 203 208 208 213 208 213 218 222 225 225 232 234 241 242
247 242 249 245 245 239 235 242 254 267 293 315 302 295 283 262 229 226 224 217 217 220 216 215 210 208 206 204 196 198 204 207 207 208 208 215 218 220 223 222 225 234 237 243
255 242 244 84 59 254 236 241 260 274 295 295 304 306 296 290 274 260 242 237 235 232 226 222 213 204 200 198 198 201 204 208 208 210 213 216 219 225 232 232 225 235 239 243
245 250 253 214 193 235 240 243 295 281 292 304 317 289 232 328 313 288 276 262 252 247 230 212 208 200 192 192 197 202 206 211 208 210 214 215 221 228 233 236 232 233 238 243
238 250 254 267 47 277 246 231 7 305 289 291 284 274 338 20 334 325 326 312 292 255 219 203 202 200 200 200 204 213 217 219 215 214 217 221 227 231 231 234 239 241 240 242
242 249 255 14 16 215 237 341 13 313 289 260 263 317 350 344 334 342 337 333 327 250 216 223 209 200 210 214 221 225 224 221 218 218 224 225 230 231 230 233 242 247 247 245
239 245 250 69 136 228 336 5 351 339 324 288 292 340 350 355 349 348 345 339 301 242 242 236 214 204 211 226 231 222 219 223 226 227 226 221 222 230 235 237 243 248 250 252
257 299 34 102 264 349 344 328 336 331 328 316 307 331 349 340 338 338 329 322 297 267 260 259 239 226 227 236 233 219 214 220 227 230 229 230 227 228 233 235 243 249 250 254
247 248 310 328 329 328 327 326 338 340 337 323 309 327 339 334 332 330 323 320 308 284 272 277 271 254 256 260 238 225 231 235 234 234 235 237 238 239 241 244 248 253 254 257
254 272 291 288 311 320 331 333 340 348 345 333 325 328 336 330 327 327 320 310 298 283 278 278 276 267 261 253 243 236 237 242 245 244 245 245 241 245 247 252 267 265 262 262
258 275 281 306 339 342 337 342 346 349 349 350 342 329 332 331 329 324 318 312 299 294 290 286 282 278 273 260 251 248 249 247 245 244 242 242 244 248 247 248 261 264 274 277
275 295 301 306 316 322 320 323 329 338 346 342 338 332 326 324 323 323 319 313 306 303 299 295 289 290 287 273 260 255 256 257 255 251 248 246 244 245 251 243 234 238 245 257
256 260 267 282 298 311 320 326 328 336 343 343 339 336 330 321 320 316 312 310 309 306 303 301 296 295 295 282 269 264 264 263 261 257 257 255 253 253 253 257 257 250 230 230
242 252 261 278 304 316 324 326 327 327 336 342 342 334 326 318 313 312 312 308 303 300 300 299 297 300 297 279 269 267 265 261 262 264 261 261 260 257 258 261 263 266 263 237
236 238 239 251 277 301 308 306 306 312 321 325 328 325 320 316 313 311 309 303 295 294 296 293 296 304 300 280 272 268 264 264 268 267 263 262 260 257 257 261 265 267 266 271
227 235 243 253 262 271 281 289 293 297 303 306 310 312 313 310 309 310 309 302 295 292 295 294 300 306 299 287 279 274 274 266 259 264 263 264 263 261 259 260 263 265 267 274
231 239 244 248 248 263 281 291 296 298 295 298 299 300 301 302 300 301 301 301 299 298 298 302 308 303 291 284 282 278 272 268 265 265 266 265 266 263 261 261 262 265 268 259
205 217 238 263 274 277 287 296 302 304 301 296 294 295 296 293 294 296 296 295 294 294 303 309 313 296 288 289 292 271 269 271 273 273 272 272 270 270 270 268 268 269 268 265
189 208 236 278 287 282 283 293 301 303 303 300 295 293 293 295 297 294 290 287 290 298 303 308 297 288 287 288 292 279 273 272 274 274 271 268 269 274 275 274 272 270 269 266
182 202 234 262 278 282 283 286 288 292 297 292 288 290 294 298 301 294 288 287 299 311 307 305 294 290 290 297 284 276 270 272 276 278 280 281 281 281 280 279 278 277 275 272
218 236 255 267 274 280 285 286 288 289 287 286 288 292 296 298 301 295 288 296 311 322 307 296 297 314 318 310 286 281 280 281 284 285 285 283 280 280 281 282 280 279 280 280
254 262 266 271 277 282 285 287 291 287 281 279 281 287 292 297 296 294 297 312 316 316 308 308 326 331 320 304 294 291 290 287 285 282 278 277 278 279 279 280 281 281 281 280
265 271 277 277 272 272 278 288 291 290 286 280 278 281 284 286 287 290 299 312 319 313 307 326 332 328 318 303 298 295 292 291 291 289 286 283 281 279 279 279 280 280 279 279
258 262 265 269 270 276 286 291 288 287 285 282 284 283 283 284 289 298 302 305 315 311 307 319 325 322 310 303 303 301 298 294 292 289 284 282 281 278 277 277 278 279 278 278
260 261 266 270 276 278 278 276 277 280 279 281 288 291 295 296 296 298 301 303 304 306 308 312 312 309 302 304 304 301 297 293 289 288 289 287 282 280 279 279 280 278 278 279
255 258 260 263 264 267 269 265 268 276 278 278 285 291 294 296 298 300 301 300 300 300 302 304 306 304 302 301 299 298 298 298 296 292 290 288 286 284 283 281 279 278 277 277